OneWeb SL0162

operational
NORAD ID: 48056 Int'l Des: 2021-025 Owner: ONEWEBN Country: UK Constellation: oneweb
LEOCIRCULARPOLARONEWEB_TYPE

关于 OneWeb SL0162

正在加载描述...

实时位置

正在加载3D地球...

即将过境

高度历史

Altitude vs Time

uPlot chart will show altitude changes over time

两行轨道根数

1 48056U 21025Q 25258.58582529 -.00000326 00000-0 -92787-3 0 9998
2 48056 87.9036 14.7658 0001836 100.6337 259.4999 13.13470131217491
Epoch: Sep 15, 2025 • Age: 16 hours

当前状态

高度 1237.9 km
速度 7.23 km/s
星下点 -72.72°S, 116.39°E
发射日期 Mar 25, 2021
运行时间 4.4 years
类型 internet

技术详情

分类 Payload
质量 148.00 kg
干质量 140.00 kg
总质量 148.00 kg
长度 1.30 m
直径 1.00 m
跨度 5.00 m
形状 Trapezoid+2 pan
制造商 ONEWUS
平台类型 ARROW
阶段状态 In Orbit
所有者/国家 ONEWEBN/UK

大型星座

Loading constellations...